Regional Weather Roundup
Issued by NWS

Home | Current Version | Previous Version | Graphics & Text | Print | Product List | Glossary On
Versions: 1 2 3 4 5 6 7 8 9 10 11 12 13 14 15 16 17 18 19 20 21 22 23 24 25 26 27 28 29 30 31 32 33 34 35 36 37 38 39 40 41 42 43 44 45 46 47 48 49 50
000
ASUS43 KOAX 271710
RWRNE

WEATHER ROUNDUP FOR NEBRASKA
NATIONAL WEATHER SERVICE OMAHA NE
1200 PM CDT MON JUL 27 2015

NOTES: SATELLITE DATA IS BEING USED TO AUGMENT CLOUD COVER ABOVE
       12000 FEET.
       "FAIR" INDICATES FEW OR NO CLOUDS BELOW 12,000 FEET WITH NO
       SIGNIFICANT WEATHER AND/OR OBSTRUCTIONS TO VISIBILITY.

  * THESE STATIONS DO NOT REPORT WEATHER SUCH AS RAIN...SNOW OR FOG.

NEZ001>004-019>022-054>056-271800-
NEBRASKA PANHANDLE

CITY           SKY/WX    TMP DP  RH WIND       PRES   REMARKS
SCOTTSBLUFF    SUNNY     81  65  58 E10       29.84F
ALLIANCE       SUNNY     82  66  58 SE17G24   29.85S
CHADRON        SUNNY     86  63  45 SE8       29.78F
KIMBALL        SUNNY     84  59  42 NW3       29.89S
SIDNEY         SUNNY     82  65  56 S9        29.90S
$$

NEZ057>060-069>072-079>082-271800-
SOUTHWEST NEBRASKA

CITY           SKY/WX    TMP DP  RH WIND       PRES   REMARKS
NORTH PLATTE   PTSUNNY   82  67  60 S17G24    29.86F
IMPERIAL       SUNNY     85  65  51 S12       29.87F
LEXINGTON      MOSUNNY   85  69  59 SE12      29.88F
MCCOOK         MOSUNNY   86  67  52 S18G28    29.87F
OGALLALA       MOSUNNY   78  68  71 SE8       29.87F
$$

NEZ005>010-023>029-035>040-094-271800-
NORTH CENTRAL NEBRASKA

CITY           SKY/WX    TMP DP  RH WIND       PRES   REMARKS
VALENTINE      SUNNY     84  63  49 SE13G23   29.84F
AINSWORTH      SUNNY     85  64  49 SE18      29.85F
BROKEN BOW     SUNNY     83  68  60 S10G23    29.88F
O`NEILL        MOSUNNY   88  67  48 SE13      29.87F HX  91
ORD            SUNNY     86  65  49 S8G17     29.86F
THEDFORD       SUNNY     82  68  63 S13G20    29.87F
$$

NEZ041-046>049-061>064-073>077-083>087-271800-
SOUTH CENTRAL NEBRASKA

CITY           SKY/WX    TMP DP  RH WIND       PRES   REMARKS
GRAND ISLAND   MOSUNNY   84  67  56 SE14      29.91R
AURORA         PTSUNNY   81  67  62 SE12      29.92R
HASTINGS       MOSUNNY   82  68  62 S10       29.91F
HEBRON         MOSUNNY   81  68  64 SE10      29.91F
HOLDREGE       MOSUNNY   81  66  58 SE10      29.90S
KEARNEY *      MOSUNNY   81  66  61 SE10      29.89F
YORK           MOSUNNY   81  72  74 S7        29.92R
$$

NEZ011>018-030>034-042>045-271800-
NORTHEAST NEBRASKA

CITY           SKY/WX    TMP DP  RH WIND       PRES   REMARKS
NORFOLK        MOSUNNY   85  76  74 E7        29.88R HX  94
ALBION         SUNNY     85  73  68 S6        29.89S HX  92
BLAIR          CLOUDY    80  75  84 E8        29.91R
COLUMBUS *     PTSUNNY   84  70  61 S6        29.88R
FREMONT        PTSUNNY   84  72  66 E9        29.91R
TEKAMAH        CLOUDY    81  71  71 E10       29.89S
WAYNE          CLOUDY    81  75  81 SE14      29.90R
$$

NEZ050>053-065>068-078-088>093-271800-
SOUTHEAST NEBRASKA

CITY           SKY/WX    TMP DP  RH WIND       PRES   REMARKS
LINCOLN        CLOUDY    83  70  64 NW6       29.90S
OMAHA EPPLEY   CLOUDY    82  77  84 SE3       29.91R HX  90
BEATRICE       CLOUDY    78  72  81 S5        29.91R
FALLS CITY     CLOUDY    82  75  79 SW7       29.92R
NEBRASKA CITY  CLOUDY    78  75  89 S5        29.93R
PLATTSMOUTH    CLOUDY    79  75  89 CALM      29.92R
$$

NEZ044-045-051>053-067-271800-
OMAHA AREA

CITY           SKY/WX    TMP DP  RH WIND       PRES   REMARKS
OMAHA EPPLEY   CLOUDY    82  77  84 SE3       29.91R HX  90
BLAIR          CLOUDY    80  75  84 E8        29.91R
FREMONT        PTSUNNY   84  72  66 E9        29.91R
MILLARD        CLOUDY    81  75  83 CALM      29.91R
OFFUTT AFB     CLOUDY    80  76  85 S7        29.91R
PLATTSMOUTH    CLOUDY    79  75  89 CALM      29.92R
WAHOO          FAIR      84  71  64 S6        29.89R
$$



USA.gov is the U.S. government's official web portal to all federal, state and local government web resources and services.